Year,Month,Day,Hour,Minute,Value (Times are PST for temperature in C)
2015,04,04,00,00,6.60
2015,04,04,00,01,6.50
2015,04,04,00,02,6.50
2015,04,04,00,03,6.50
2015,04,04,00,04,6.50
2015,04,04,00,05,6.50
2015,04,04,00,06,6.50
2015,04,04,00,07,6.50
2015,04,04,00,08,6.40
2015,04,04,00,09,6.40
2015,04,04,00,10,6.40
2015,04,04,00,11,6.40
2015,04,04,00,12,6.40
2015,04,04,00,13,6.40
2015,04,04,00,14,6.40
2015,04,04,00,15,6.40
2015,04,04,00,16,6.40
2015,04,04,00,17,6.40
2015,04,04,00,18,6.40
2015,04,04,00,19,6.40
2015,04,04,00,20,6.30
2015,04,04,00,21,6.30
2015,04,04,00,22,6.30
2015,04,04,00,23,6.30
2015,04,04,00,24,6.30
2015,04,04,00,25,6.30
2015,04,04,00,26,6.30
2015,04,04,00,27,6.20
2015,04,04,00,28,6.20
2015,04,04,00,29,6.20
2015,04,04,00,30,6.20
2015,04,04,00,31,6.20
2015,04,04,00,32,6.20
2015,04,04,00,33,6.20
2015,04,04,00,34,6.20
2015,04,04,00,35,6.10
2015,04,04,00,36,6.10
2015,04,04,00,37,6.10
2015,04,04,00,38,6.10
2015,04,04,00,39,6.10
2015,04,04,00,40,6.10
2015,04,04,00,41,6.10
2015,04,04,00,42,6.10
2015,04,04,00,43,6.10
2015,04,04,00,44,6.00
2015,04,04,00,45,6.00
2015,04,04,00,46,6.00
2015,04,04,00,47,6.00
2015,04,04,00,48,6.00
2015,04,04,00,49,5.90
2015,04,04,00,50,5.90
2015,04,04,00,51,5.90
2015,04,04,00,52,5.90
2015,04,04,00,53,5.90
2015,04,04,00,54,5.90
2015,04,04,00,55,5.90
2015,04,04,00,56,5.90
2015,04,04,00,57,5.90
2015,04,04,00,58,5.90
2015,04,04,00,59,5.80
2015,04,04,01,00,5.90
2015,04,04,01,01,5.90
2015,04,04,01,02,5.90
2015,04,04,01,03,5.90
2015,04,04,01,04,5.90
2015,04,04,01,05,5.90
2015,04,04,01,06,5.90
2015,04,04,01,07,5.90
2015,04,04,01,08,5.90
2015,04,04,01,09,5.90
2015,04,04,01,10,5.90
2015,04,04,01,11,5.90
2015,04,04,01,12,5.90
2015,04,04,01,13,5.90
2015,04,04,01,14,5.90
2015,04,04,01,15,5.90
2015,04,04,01,16,5.80
2015,04,04,01,17,5.80
2015,04,04,01,18,5.80
2015,04,04,01,19,5.80
2015,04,04,01,20,5.80
2015,04,04,01,21,5.80
2015,04,04,01,22,5.80
2015,04,04,01,23,5.80
2015,04,04,01,24,5.80
2015,04,04,01,25,5.80
2015,04,04,01,26,5.80
2015,04,04,01,27,5.80
2015,04,04,01,28,5.80
2015,04,04,01,29,5.80
2015,04,04,01,30,5.70
2015,04,04,01,31,5.70
2015,04,04,01,32,5.70
2015,04,04,01,33,5.70
2015,04,04,01,34,5.70
2015,04,04,01,35,5.70
2015,04,04,01,36,5.70
2015,04,04,01,37,5.70
2015,04,04,01,38,5.70
2015,04,04,01,39,5.70
2015,04,04,01,40,5.70
2015,04,04,01,41,5.70
2015,04,04,01,42,5.70
2015,04,04,01,43,5.70
2015,04,04,01,44,5.60
2015,04,04,01,45,5.60
2015,04,04,01,46,5.60
2015,04,04,01,47,5.60
2015,04,04,01,48,5.60
2015,04,04,01,49,5.50
2015,04,04,01,50,5.50
2015,04,04,01,51,5.60
2015,04,04,01,52,5.60
2015,04,04,01,53,5.60
2015,04,04,01,54,5.60
2015,04,04,01,55,5.60
2015,04,04,01,56,5.60
2015,04,04,01,57,5.50
2015,04,04,01,58,5.50
2015,04,04,01,59,5.50
2015,04,04,02,00,5.50
2015,04,04,02,01,5.50
2015,04,04,02,02,5.40
2015,04,04,02,03,5.40
2015,04,04,02,04,5.40
2015,04,04,02,05,5.40
2015,04,04,02,06,5.40
2015,04,04,02,07,5.40
2015,04,04,02,08,5.40
2015,04,04,02,09,5.40
2015,04,04,02,10,5.40
2015,04,04,02,11,5.40
2015,04,04,02,12,5.40
2015,04,04,02,13,5.40
2015,04,04,02,14,5.40
2015,04,04,02,15,5.40
2015,04,04,02,16,5.40
2015,04,04,02,17,5.40
2015,04,04,02,18,5.40
2015,04,04,02,19,5.40
2015,04,04,02,20,5.40
2015,04,04,02,21,5.40
2015,04,04,02,22,5.40
2015,04,04,02,23,5.40
2015,04,04,02,24,5.40
2015,04,04,02,25,5.40
2015,04,04,02,26,5.40
2015,04,04,02,27,5.40
2015,04,04,02,28,5.50
2015,04,04,02,29,5.50
2015,04,04,02,30,5.50
2015,04,04,02,31,5.50
2015,04,04,02,32,5.50
2015,04,04,02,33,5.50
2015,04,04,02,34,5.50
2015,04,04,02,35,5.50
2015,04,04,02,36,5.50
2015,04,04,02,37,5.50
2015,04,04,02,38,5.50
2015,04,04,02,39,5.60
2015,04,04,02,40,5.50
2015,04,04,02,41,5.60
2015,04,04,02,42,5.60
2015,04,04,02,43,5.60
2015,04,04,02,44,5.60
2015,04,04,02,45,5.60
2015,04,04,02,46,5.60
2015,04,04,02,47,5.60
2015,04,04,02,48,5.60
2015,04,04,02,49,5.60
2015,04,04,02,50,5.60
2015,04,04,02,51,5.60
2015,04,04,02,52,5.60
2015,04,04,02,53,5.60
2015,04,04,02,54,5.60
2015,04,04,02,55,5.60
2015,04,04,02,56,5.60
2015,04,04,02,57,5.50
2015,04,04,02,58,5.50
2015,04,04,02,59,5.50
2015,04,04,03,00,5.50
2015,04,04,03,01,5.50
2015,04,04,03,02,5.50
2015,04,04,03,03,5.40
2015,04,04,03,04,5.40
2015,04,04,03,05,5.40
2015,04,04,03,06,5.40
2015,04,04,03,07,5.40
2015,04,04,03,08,5.30
2015,04,04,03,09,5.30
2015,04,04,03,10,5.30
2015,04,04,03,11,5.30
2015,04,04,03,12,5.30
2015,04,04,03,13,5.30
2015,04,04,03,14,5.30
2015,04,04,03,15,5.30
2015,04,04,03,16,5.20
2015,04,04,03,17,5.20
2015,04,04,03,18,5.20
2015,04,04,03,19,5.20
2015,04,04,03,20,5.10
2015,04,04,03,21,5.10
2015,04,04,03,22,5.10
2015,04,04,03,23,5.10
2015,04,04,03,24,5.00
2015,04,04,03,25,5.00
2015,04,04,03,26,4.90
2015,04,04,03,27,4.90
2015,04,04,03,28,4.90
2015,04,04,03,29,4.90
2015,04,04,03,30,4.90
2015,04,04,03,31,4.90
2015,04,04,03,32,4.90
2015,04,04,03,33,4.90
2015,04,04,03,34,4.90
2015,04,04,03,35,4.90
2015,04,04,03,36,4.90
2015,04,04,03,37,4.80
2015,04,04,03,38,4.80
2015,04,04,03,39,4.80
2015,04,04,03,40,4.80
2015,04,04,03,41,4.70
2015,04,04,03,42,4.70
2015,04,04,03,43,4.70
2015,04,04,03,44,4.70
2015,04,04,03,45,4.70
2015,04,04,03,46,4.70
2015,04,04,03,47,4.70
2015,04,04,03,48,4.60
2015,04,04,03,49,4.60
2015,04,04,03,50,4.60
2015,04,04,03,51,4.50
2015,04,04,03,52,4.50
2015,04,04,03,53,4.50
2015,04,04,03,54,4.50
2015,04,04,03,55,4.40
2015,04,04,03,56,4.40
2015,04,04,03,57,4.40
2015,04,04,03,58,4.30
2015,04,04,03,59,4.30
2015,04,04,04,00,4.30
2015,04,04,04,01,4.30
2015,04,04,04,02,4.30
2015,04,04,04,03,4.30
2015,04,04,04,04,4.30
2015,04,04,04,05,4.30
2015,04,04,04,06,4.20
2015,04,04,04,07,4.20
2015,04,04,04,08,4.20
2015,04,04,04,09,4.30
2015,04,04,04,10,4.30
2015,04,04,04,11,4.40
2015,04,04,04,12,4.40
2015,04,04,04,13,4.50
2015,04,04,04,14,4.50
2015,04,04,04,15,4.50
2015,04,04,04,16,4.60
2015,04,04,04,17,4.50
2015,04,04,04,18,4.50
2015,04,04,04,19,4.40
2015,04,04,04,20,4.40
2015,04,04,04,21,4.30
2015,04,04,04,22,4.30
2015,04,04,04,23,4.30
2015,04,04,04,24,4.30
2015,04,04,04,25,4.20
2015,04,04,04,26,4.20
2015,04,04,04,27,4.20
2015,04,04,04,28,4.20
2015,04,04,04,29,4.20
2015,04,04,04,30,4.20
2015,04,04,04,31,4.20
2015,04,04,04,32,4.20
2015,04,04,04,33,4.20
2015,04,04,04,34,4.10
2015,04,04,04,35,4.10
2015,04,04,04,36,4.10
2015,04,04,04,37,4.00
2015,04,04,04,38,4.00
2015,04,04,04,39,4.00
2015,04,04,04,40,3.90
2015,04,04,04,41,3.90
2015,04,04,04,42,3.90
2015,04,04,04,43,3.90
2015,04,04,04,44,3.90
2015,04,04,04,45,3.80
2015,04,04,04,46,3.80
2015,04,04,04,47,3.80
2015,04,04,04,48,3.80
2015,04,04,04,49,3.80
2015,04,04,04,50,3.80
2015,04,04,04,51,3.80
2015,04,04,04,52,3.70
2015,04,04,04,53,3.70
2015,04,04,04,54,3.70
2015,04,04,04,55,3.70
2015,04,04,04,56,3.70
2015,04,04,04,57,3.70
2015,04,04,04,58,3.60
2015,04,04,04,59,3.60
2015,04,04,05,00,3.60
2015,04,04,05,01,3.60
2015,04,04,05,02,3.50
2015,04,04,05,03,3.50
2015,04,04,05,04,3.50
2015,04,04,05,05,3.50
2015,04,04,05,06,3.50
2015,04,04,05,07,3.50
2015,04,04,05,08,3.50
2015,04,04,05,09,3.50
2015,04,04,05,10,3.60
2015,04,04,05,11,3.60
2015,04,04,05,12,3.70
2015,04,04,05,13,3.70
2015,04,04,05,14,3.70
2015,04,04,05,15,3.80
2015,04,04,05,16,3.80
2015,04,04,05,17,3.80
2015,04,04,05,18,3.80
2015,04,04,05,19,3.80
2015,04,04,05,20,3.80
2015,04,04,05,21,3.80
2015,04,04,05,22,3.80
2015,04,04,05,23,3.80
2015,04,04,05,24,3.80
2015,04,04,05,25,3.80
2015,04,04,05,26,3.70
2015,04,04,05,27,3.70
2015,04,04,05,28,3.70
2015,04,04,05,29,3.70
2015,04,04,05,30,3.70
2015,04,04,05,31,3.70
2015,04,04,05,32,3.60
2015,04,04,05,33,3.60
2015,04,04,05,34,3.60
2015,04,04,05,35,3.60
2015,04,04,05,36,3.60
2015,04,04,05,37,3.50
2015,04,04,05,38,3.50
2015,04,04,05,39,3.50
2015,04,04,05,40,3.50
2015,04,04,05,41,3.50
2015,04,04,05,42,3.50
2015,04,04,05,43,3.50
2015,04,04,05,44,3.50
2015,04,04,05,45,3.50
2015,04,04,05,46,3.60
2015,04,04,05,47,3.60
2015,04,04,05,48,3.60
2015,04,04,05,49,3.60
2015,04,04,05,50,3.60
2015,04,04,05,51,3.70
2015,04,04,05,52,3.70
2015,04,04,05,53,3.70
2015,04,04,05,54,3.70
2015,04,04,05,55,3.70
2015,04,04,05,56,3.70
2015,04,04,05,57,3.70
2015,04,04,05,58,3.70
2015,04,04,05,59,3.70
2015,04,04,06,00,3.70
2015,04,04,06,01,3.70
2015,04,04,06,02,3.70
2015,04,04,06,03,3.70
2015,04,04,06,04,3.70
2015,04,04,06,05,3.70
2015,04,04,06,06,3.70
2015,04,04,06,07,3.70
2015,04,04,06,08,3.70
2015,04,04,06,09,3.70
2015,04,04,06,10,3.70
2015,04,04,06,11,3.70
2015,04,04,06,12,3.70
2015,04,04,06,13,3.70
2015,04,04,06,14,3.70
2015,04,04,06,15,3.70
2015,04,04,06,16,3.70
2015,04,04,06,17,3.70
2015,04,04,06,18,3.80
2015,04,04,06,19,3.80
2015,04,04,06,20,3.80
2015,04,04,06,21,3.80
2015,04,04,06,22,3.90
2015,04,04,06,23,3.90
2015,04,04,06,24,3.90
2015,04,04,06,25,3.90
2015,04,04,06,26,4.00
2015,04,04,06,27,4.00
2015,04,04,06,28,4.10
2015,04,04,06,29,4.10
2015,04,04,06,30,4.20
2015,04,04,06,31,4.30
2015,04,04,06,32,4.30
2015,04,04,06,33,4.50
2015,04,04,06,34,4.60
2015,04,04,06,35,4.70
2015,04,04,06,36,4.90
2015,04,04,06,37,5.00
2015,04,04,06,38,5.10
2015,04,04,06,39,5.20
2015,04,04,06,40,5.20
2015,04,04,06,41,5.30
2015,04,04,06,42,5.30
2015,04,04,06,43,5.40
2015,04,04,06,44,5.50
2015,04,04,06,45,5.50
2015,04,04,06,46,5.60
2015,04,04,06,47,5.60
2015,04,04,06,48,5.70
2015,04,04,06,49,5.80
2015,04,04,06,50,5.90
2015,04,04,06,51,6.00
2015,04,04,06,52,6.00
2015,04,04,06,53,6.10
2015,04,04,06,54,6.10
2015,04,04,06,55,6.20
2015,04,04,06,56,6.20
2015,04,04,06,57,6.30
2015,04,04,06,58,6.30
2015,04,04,06,59,6.30
2015,04,04,07,00,6.40
2015,04,04,07,01,6.40
2015,04,04,07,02,6.40
2015,04,04,07,03,6.40
2015,04,04,07,04,6.50
2015,04,04,07,05,6.50
2015,04,04,07,06,6.50
2015,04,04,07,07,6.50
2015,04,04,07,08,6.50
2015,04,04,07,09,6.50
2015,04,04,07,10,6.50
2015,04,04,07,11,6.60
2015,04,04,07,12,6.60
2015,04,04,07,13,6.60
2015,04,04,07,14,6.60
2015,04,04,07,15,6.60
2015,04,04,07,16,6.60
2015,04,04,07,17,6.70
2015,04,04,07,18,6.70
2015,04,04,07,19,6.70
2015,04,04,07,20,6.70
2015,04,04,07,21,6.70
2015,04,04,07,22,6.80
2015,04,04,07,23,6.80
2015,04,04,07,24,6.80
2015,04,04,07,25,6.80
2015,04,04,07,26,6.80
2015,04,04,07,27,6.80
2015,04,04,07,28,6.90
2015,04,04,07,29,6.90
2015,04,04,07,30,6.90
2015,04,04,07,31,6.90
2015,04,04,07,32,6.90
2015,04,04,07,33,6.90
2015,04,04,07,34,6.90
2015,04,04,07,35,6.90
2015,04,04,07,36,6.90
2015,04,04,07,37,6.90
2015,04,04,07,38,6.90
2015,04,04,07,39,6.90
2015,04,04,07,40,6.90
2015,04,04,07,41,6.90
2015,04,04,07,42,7.00
2015,04,04,07,43,7.00
2015,04,04,07,44,7.00
2015,04,04,07,45,7.00
2015,04,04,07,46,7.10
2015,04,04,07,47,7.10
2015,04,04,07,48,7.10
2015,04,04,07,49,7.10
2015,04,04,07,50,7.10
2015,04,04,07,51,7.10
2015,04,04,07,52,7.20
2015,04,04,07,53,7.20
2015,04,04,07,54,7.20
2015,04,04,07,55,7.20
2015,04,04,07,56,7.20
2015,04,04,07,57,7.20
2015,04,04,07,58,7.20
2015,04,04,07,59,7.20
2015,04,04,08,00,7.20
2015,04,04,08,01,7.20
2015,04,04,08,02,7.20
2015,04,04,08,03,7.30
2015,04,04,08,04,7.30
2015,04,04,08,05,7.30
2015,04,04,08,06,7.30
2015,04,04,08,07,7.30
2015,04,04,08,08,7.30
2015,04,04,08,09,7.30
2015,04,04,08,10,7.30
2015,04,04,08,11,7.30
2015,04,04,08,12,7.30
2015,04,04,08,13,7.30
2015,04,04,08,14,7.40
2015,04,04,08,15,7.40
2015,04,04,08,16,7.40
2015,04,04,08,17,7.40
2015,04,04,08,18,7.40
2015,04,04,08,19,7.40
2015,04,04,08,20,7.40
2015,04,04,08,21,7.40
2015,04,04,08,22,7.40
2015,04,04,08,23,7.40
2015,04,04,08,24,7.40
2015,04,04,08,25,7.40
2015,04,04,08,26,7.40
2015,04,04,08,27,7.40
2015,04,04,08,28,7.40
2015,04,04,08,29,7.40
2015,04,04,08,30,7.40
2015,04,04,08,31,7.40
2015,04,04,08,32,7.40
2015,04,04,08,33,7.40
2015,04,04,08,34,7.40
2015,04,04,08,35,7.40
2015,04,04,08,36,7.40
2015,04,04,08,37,7.40
2015,04,04,08,38,7.40
2015,04,04,08,39,7.40
2015,04,04,08,40,7.40
2015,04,04,08,41,7.40
2015,04,04,08,42,7.40
2015,04,04,08,43,7.40
2015,04,04,08,44,7.40
2015,04,04,08,45,7.40
2015,04,04,08,46,7.40
2015,04,04,08,47,7.40
2015,04,04,08,48,7.40
2015,04,04,08,49,7.40
2015,04,04,08,50,7.40
2015,04,04,08,51,7.40
2015,04,04,08,52,7.40
2015,04,04,08,53,7.40
2015,04,04,08,54,7.40
2015,04,04,08,55,7.40
2015,04,04,08,56,7.50
2015,04,04,08,57,7.50
2015,04,04,08,58,7.40
2015,04,04,08,59,7.40
2015,04,04,09,00,7.40
2015,04,04,09,01,7.40
2015,04,04,09,02,7.30
2015,04,04,09,03,7.30
2015,04,04,09,04,7.30
2015,04,04,09,05,7.30
2015,04,04,09,06,7.30
2015,04,04,09,07,7.30
2015,04,04,09,08,7.40
2015,04,04,09,09,7.40
2015,04,04,09,10,7.40
2015,04,04,09,11,7.40
2015,04,04,09,12,7.40
2015,04,04,09,13,7.40
2015,04,04,09,14,7.40
2015,04,04,09,15,7.40
2015,04,04,09,16,7.40
2015,04,04,09,17,7.40
2015,04,04,09,18,7.40
2015,04,04,09,19,7.40
2015,04,04,09,20,7.40
2015,04,04,09,21,7.40
2015,04,04,09,22,7.50
2015,04,04,09,23,7.50
2015,04,04,09,24,7.60
2015,04,04,09,25,7.60
2015,04,04,09,26,7.50
2015,04,04,09,27,7.50
2015,04,04,09,28,7.50
2015,04,04,09,29,7.40
2015,04,04,09,30,7.40
2015,04,04,09,31,7.40
2015,04,04,09,32,7.50
2015,04,04,09,33,7.50
2015,04,04,09,34,7.50
2015,04,04,09,35,7.50
2015,04,04,09,36,7.60
2015,04,04,09,37,7.60
2015,04,04,09,38,7.60
2015,04,04,09,39,7.60
2015,04,04,09,40,7.60
2015,04,04,09,41,7.60
2015,04,04,09,42,7.60
2015,04,04,09,43,7.60
2015,04,04,09,44,7.70
2015,04,04,09,45,7.70
2015,04,04,09,46,7.70
2015,04,04,09,47,7.70
2015,04,04,09,48,7.70
2015,04,04,09,49,7.70
2015,04,04,09,50,7.70
2015,04,04,09,51,7.70
2015,04,04,09,52,7.70
2015,04,04,09,53,7.70
2015,04,04,09,54,7.70
2015,04,04,09,55,7.60
2015,04,04,09,56,7.60
2015,04,04,09,57,7.70
2015,04,04,09,58,7.70
2015,04,04,09,59,7.70
2015,04,04,10,00,7.70
2015,04,04,10,01,7.70
2015,04,04,10,02,7.70
2015,04,04,10,03,7.70
2015,04,04,10,04,7.70
2015,04,04,10,05,7.70
2015,04,04,10,06,7.70
2015,04,04,10,07,7.70
2015,04,04,10,08,7.80
2015,04,04,10,09,7.80
2015,04,04,10,10,7.90
2015,04,04,10,11,7.90
2015,04,04,10,12,8.00
2015,04,04,10,13,8.00
2015,04,04,10,14,8.10
2015,04,04,10,15,8.10
2015,04,04,10,16,8.00
2015,04,04,10,17,8.00
2015,04,04,10,18,8.00
2015,04,04,10,19,7.90
2015,04,04,10,20,7.90
2015,04,04,10,21,7.90
2015,04,04,10,22,7.90
2015,04,04,10,23,7.90
2015,04,04,10,24,7.90
2015,04,04,10,25,7.90
2015,04,04,10,26,8.00
2015,04,04,10,27,8.10
2015,04,04,10,28,8.10
2015,04,04,10,29,8.20
2015,04,04,10,30,8.20
2015,04,04,10,31,8.30
2015,04,04,10,32,8.30
2015,04,04,10,33,8.30
2015,04,04,10,34,8.40
2015,04,04,10,35,8.30
2015,04,04,10,36,8.30
2015,04,04,10,37,8.30
2015,04,04,10,38,8.30
2015,04,04,10,39,8.30
2015,04,04,10,40,8.40
2015,04,04,10,41,8.40
2015,04,04,10,42,8.40
2015,04,04,10,43,8.40
2015,04,04,10,44,8.40
2015,04,04,10,45,8.30
2015,04,04,10,46,8.30
2015,04,04,10,47,8.30
2015,04,04,10,48,8.20
2015,04,04,10,49,8.20
2015,04,04,10,50,8.20
2015,04,04,10,51,8.20
2015,04,04,10,52,8.20
2015,04,04,10,53,8.30
2015,04,04,10,54,8.30
2015,04,04,10,55,8.30
2015,04,04,10,56,8.30
2015,04,04,10,57,8.20
2015,04,04,10,58,8.20
2015,04,04,10,59,8.20
2015,04,04,11,00,8.20
2015,04,04,11,01,8.10
2015,04,04,11,02,8.20
2015,04,04,11,03,8.20
2015,04,04,11,04,8.30
2015,04,04,11,05,8.40
2015,04,04,11,06,8.50
2015,04,04,11,07,8.60
2015,04,04,11,08,8.60
2015,04,04,11,09,8.60
2015,04,04,11,10,8.60
2015,04,04,11,11,8.60
2015,04,04,11,12,8.60
2015,04,04,11,13,8.50
2015,04,04,11,14,8.40
2015,04,04,11,15,8.30
2015,04,04,11,16,8.20
2015,04,04,11,17,8.20
2015,04,04,11,18,8.20
2015,04,04,11,19,8.20
2015,04,04,11,20,8.20
2015,04,04,11,21,8.20
2015,04,04,11,22,8.20
2015,04,04,11,23,8.20
2015,04,04,11,24,8.30
2015,04,04,11,25,8.40
2015,04,04,11,26,8.50
2015,04,04,11,27,8.60
2015,04,04,11,28,8.60
2015,04,04,11,29,8.60
2015,04,04,11,30,8.60
2015,04,04,11,31,8.60
2015,04,04,11,32,8.50
2015,04,04,11,33,8.40
2015,04,04,11,34,8.30
2015,04,04,11,35,8.30
2015,04,04,11,36,8.30
2015,04,04,11,37,8.30
2015,04,04,11,38,8.40
2015,04,04,11,39,8.50
2015,04,04,11,40,8.50
2015,04,04,11,41,8.60
2015,04,04,11,42,8.60
2015,04,04,11,43,8.60
2015,04,04,11,44,8.60
2015,04,04,11,45,8.60
2015,04,04,11,46,8.60
2015,04,04,11,47,8.60
2015,04,04,11,48,8.70
2015,04,04,11,49,8.80
2015,04,04,11,50,8.80
2015,04,04,11,51,8.80
2015,04,04,11,52,8.80
2015,04,04,11,53,8.90
2015,04,04,11,54,8.90
2015,04,04,11,55,8.90
2015,04,04,11,56,8.80
2015,04,04,11,57,8.80
2015,04,04,11,58,8.80
2015,04,04,11,59,8.80
2015,04,04,12,00,8.90
2015,04,04,12,01,8.90
2015,04,04,12,02,8.90
2015,04,04,12,03,8.90
2015,04,04,12,04,8.80
2015,04,04,12,05,8.80
2015,04,04,12,06,8.80
2015,04,04,12,07,8.70
2015,04,04,12,08,8.70
2015,04,04,12,09,8.70
2015,04,04,12,10,8.60
2015,04,04,12,11,8.60
2015,04,04,12,12,8.70
2015,04,04,12,13,8.80
2015,04,04,12,14,8.90
2015,04,04,12,15,9.00
2015,04,04,12,16,9.00
2015,04,04,12,17,9.10
2015,04,04,12,18,9.10
2015,04,04,12,19,9.10
2015,04,04,12,20,9.10
2015,04,04,12,21,9.10
2015,04,04,12,22,9.20
2015,04,04,12,23,9.20
2015,04,04,12,24,9.30
2015,04,04,12,25,9.30
2015,04,04,12,26,9.10
2015,04,04,12,27,9.10
2015,04,04,12,28,9.10
2015,04,04,12,29,9.10
2015,04,04,12,30,9.10
2015,04,04,12,31,9.10
2015,04,04,12,32,9.10
2015,04,04,12,33,9.10
2015,04,04,12,34,9.10
2015,04,04,12,35,9.00
2015,04,04,12,36,9.10
2015,04,04,12,37,9.20
2015,04,04,12,38,9.10
2015,04,04,12,39,9.10
2015,04,04,12,40,9.10
2015,04,04,12,41,9.10
2015,04,04,12,42,9.10
2015,04,04,12,43,9.10
2015,04,04,12,44,9.10
2015,04,04,12,45,9.10
2015,04,04,12,46,9.10
2015,04,04,12,47,9.00
2015,04,04,12,48,9.00
2015,04,04,12,49,9.10
2015,04,04,12,50,9.20
2015,04,04,12,51,9.20
2015,04,04,12,52,9.40
2015,04,04,12,53,9.50
2015,04,04,12,54,9.50
2015,04,04,12,55,9.60
2015,04,04,12,56,9.60
2015,04,04,12,57,9.70
2015,04,04,12,58,9.80
2015,04,04,12,59,9.80
2015,04,04,13,00,9.80
2015,04,04,13,01,9.60
2015,04,04,13,02,9.50
2015,04,04,13,03,9.30
2015,04,04,13,04,9.20
2015,04,04,13,05,9.20
2015,04,04,13,06,9.20
2015,04,04,13,07,9.10
2015,04,04,13,08,9.00
2015,04,04,13,09,9.00
2015,04,04,13,10,9.00
2015,04,04,13,11,9.00
2015,04,04,13,12,8.90
2015,04,04,13,13,8.90
2015,04,04,13,14,8.90
2015,04,04,13,15,9.00
2015,04,04,13,16,8.90
2015,04,04,13,17,8.90
2015,04,04,13,18,9.00
2015,04,04,13,19,8.90
2015,04,04,13,20,9.00
2015,04,04,13,21,9.00
2015,04,04,13,22,9.00
2015,04,04,13,23,9.00
2015,04,04,13,24,9.00
2015,04,04,13,25,9.00
2015,04,04,13,26,9.00
2015,04,04,13,27,9.00
2015,04,04,13,28,9.10
2015,04,04,13,29,9.30
2015,04,04,13,30,9.30
2015,04,04,13,31,9.30
2015,04,04,13,32,9.30
2015,04,04,13,33,9.40
2015,04,04,13,34,9.50
2015,04,04,13,35,9.50
2015,04,04,13,36,9.60
2015,04,04,13,37,9.60
2015,04,04,13,38,9.60
2015,04,04,13,39,9.60
2015,04,04,13,40,9.60
2015,04,04,13,41,9.60
2015,04,04,13,42,9.60
2015,04,04,13,43,9.60
2015,04,04,13,44,9.60
2015,04,04,13,45,9.60
2015,04,04,13,46,9.60
2015,04,04,13,47,9.70
2015,04,04,13,48,9.70
2015,04,04,13,49,9.60
2015,04,04,13,50,9.60
2015,04,04,13,51,9.60
2015,04,04,13,52,9.70
2015,04,04,13,53,9.70
2015,04,04,13,54,9.70
2015,04,04,13,55,9.70
2015,04,04,13,56,9.70
2015,04,04,13,57,9.80
2015,04,04,13,58,9.80
2015,04,04,13,59,9.80
2015,04,04,14,00,9.70
2015,04,04,14,01,9.70
2015,04,04,14,02,9.70
2015,04,04,14,03,9.70
2015,04,04,14,04,9.60
2015,04,04,14,05,9.60
2015,04,04,14,06,9.50
2015,04,04,14,07,9.40
2015,04,04,14,08,9.40
2015,04,04,14,09,9.40
2015,04,04,14,10,9.40
2015,04,04,14,11,9.40
2015,04,04,14,12,9.40
2015,04,04,14,13,9.30
2015,04,04,14,14,9.30
2015,04,04,14,15,9.30
2015,04,04,14,16,9.30
2015,04,04,14,17,9.30
2015,04,04,14,18,9.30
2015,04,04,14,19,9.20
2015,04,04,14,20,9.30
2015,04,04,14,21,9.30
2015,04,04,14,22,9.30
2015,04,04,14,23,9.20
2015,04,04,14,24,9.20
2015,04,04,14,25,9.30
2015,04,04,14,26,9.30
2015,04,04,14,27,9.30
2015,04,04,14,28,9.30
2015,04,04,14,29,9.30
2015,04,04,14,30,9.30
2015,04,04,14,31,9.30
2015,04,04,14,32,9.30
2015,04,04,14,33,9.40
2015,04,04,14,34,9.40
2015,04,04,14,35,9.50
2015,04,04,14,36,9.50
2015,04,04,14,37,9.50
2015,04,04,14,38,9.50
2015,04,04,14,39,9.50
2015,04,04,14,40,9.60
2015,04,04,14,41,9.60
2015,04,04,14,42,9.60
2015,04,04,14,43,9.70
2015,04,04,14,44,9.70
2015,04,04,14,45,9.80
2015,04,04,14,46,9.90
2015,04,04,14,47,9.90
2015,04,04,14,48,9.90
2015,04,04,14,49,9.90
2015,04,04,14,50,9.80
2015,04,04,14,51,9.90
2015,04,04,14,52,9.90
2015,04,04,14,53,10.00
2015,04,04,14,54,10.10
2015,04,04,14,55,10.10
2015,04,04,14,56,10.20
2015,04,04,14,57,10.20
2015,04,04,14,58,10.30
2015,04,04,14,59,10.30
2015,04,04,15,00,10.30
2015,04,04,15,01,10.20
2015,04,04,15,02,10.20
2015,04,04,15,03,10.20
2015,04,04,15,04,10.20
2015,04,04,15,05,10.20
2015,04,04,15,06,10.20
2015,04,04,15,07,10.10
2015,04,04,15,08,10.10
2015,04,04,15,09,10.10
2015,04,04,15,10,10.20
2015,04,04,15,11,10.20
2015,04,04,15,12,10.20
2015,04,04,15,13,10.30
2015,04,04,15,14,10.30
2015,04,04,15,15,10.30
2015,04,04,15,16,10.20
2015,04,04,15,17,10.20
2015,04,04,15,18,10.30
2015,04,04,15,19,10.30
2015,04,04,15,20,10.30
2015,04,04,15,21,10.30
2015,04,04,15,22,10.40
2015,04,04,15,23,10.40
2015,04,04,15,24,10.40
2015,04,04,15,25,10.50
2015,04,04,15,26,10.50
2015,04,04,15,27,10.60
2015,04,04,15,28,10.60
2015,04,04,15,29,10.60
2015,04,04,15,30,10.60
2015,04,04,15,31,10.50
2015,04,04,15,32,10.50
2015,04,04,15,33,10.50
2015,04,04,15,34,10.40
2015,04,04,15,35,10.40
2015,04,04,15,36,10.40
2015,04,04,15,37,10.40
2015,04,04,15,38,10.40
2015,04,04,15,39,10.40
2015,04,04,15,40,10.40
2015,04,04,15,41,10.50
2015,04,04,15,42,10.50
2015,04,04,15,43,10.40
2015,04,04,15,44,10.50
2015,04,04,15,45,10.40
2015,04,04,15,46,10.40
2015,04,04,15,47,10.50
2015,04,04,15,48,10.50
2015,04,04,15,49,10.60
2015,04,04,15,50,10.60
2015,04,04,15,51,10.60
2015,04,04,15,52,10.70
2015,04,04,15,53,10.70
2015,04,04,15,54,10.80
2015,04,04,15,55,10.90
2015,04,04,15,56,10.90
2015,04,04,15,57,10.90
2015,04,04,15,58,10.90
2015,04,04,15,59,10.90
2015,04,04,16,00,10.90
2015,04,04,16,01,10.80
2015,04,04,16,02,10.80
2015,04,04,16,03,10.70
2015,04,04,16,04,10.70
2015,04,04,16,05,10.70
2015,04,04,16,06,10.80
2015,04,04,16,07,10.80
2015,04,04,16,08,10.80
2015,04,04,16,09,10.80
2015,04,04,16,10,10.80
2015,04,04,16,11,10.70
2015,04,04,16,12,10.70
2015,04,04,16,13,10.70
2015,04,04,16,14,10.70
2015,04,04,16,15,10.60
2015,04,04,16,16,10.60
2015,04,04,16,17,10.60
2015,04,04,16,18,10.60
2015,04,04,16,19,10.60
2015,04,04,16,20,10.70
2015,04,04,16,21,10.70
2015,04,04,16,22,10.80
2015,04,04,16,23,10.80
2015,04,04,16,24,10.80
2015,04,04,16,25,10.70
2015,04,04,16,26,10.70
2015,04,04,16,27,10.70
2015,04,04,16,28,10.60
2015,04,04,16,29,10.60
2015,04,04,16,30,10.60
2015,04,04,16,31,10.60
2015,04,04,16,32,10.60
2015,04,04,16,33,10.60
2015,04,04,16,34,10.60
2015,04,04,16,35,10.60
2015,04,04,16,36,10.60
2015,04,04,16,37,10.60
2015,04,04,16,38,10.60
2015,04,04,16,39,10.60
2015,04,04,16,40,10.70
2015,04,04,16,41,10.70
2015,04,04,16,42,10.80
2015,04,04,16,43,10.80
2015,04,04,16,44,10.80
2015,04,04,16,45,10.80
2015,04,04,16,46,10.80
2015,04,04,16,47,10.80
2015,04,04,16,48,10.80
2015,04,04,16,49,10.80
2015,04,04,16,50,10.80
2015,04,04,16,51,10.80
2015,04,04,16,52,10.80
2015,04,04,16,53,10.80
2015,04,04,16,54,10.80
2015,04,04,16,55,10.80
2015,04,04,16,56,10.80
2015,04,04,16,57,10.80
2015,04,04,16,58,10.80
2015,04,04,16,59,10.80
2015,04,04,17,00,10.80
2015,04,04,17,01,10.70
2015,04,04,17,02,10.70
2015,04,04,17,03,10.70
2015,04,04,17,04,10.70
2015,04,04,17,05,10.80
2015,04,04,17,06,10.80
2015,04,04,17,07,10.80
2015,04,04,17,08,10.80
2015,04,04,17,09,10.80
2015,04,04,17,10,10.80
2015,04,04,17,11,10.80
2015,04,04,17,12,10.80
2015,04,04,17,13,10.90
2015,04,04,17,14,10.80
2015,04,04,17,15,10.80
2015,04,04,17,16,10.80
2015,04,04,17,17,10.90
2015,04,04,17,18,10.90
2015,04,04,17,19,11.00
2015,04,04,17,20,11.10
2015,04,04,17,21,11.10
2015,04,04,17,22,11.10
2015,04,04,17,23,11.10
2015,04,04,17,24,11.10
2015,04,04,17,25,11.00
2015,04,04,17,26,11.00
2015,04,04,17,27,10.90
2015,04,04,17,28,10.90
2015,04,04,17,29,10.90
2015,04,04,17,30,10.80
2015,04,04,17,31,10.80
2015,04,04,17,32,10.70
2015,04,04,17,33,10.70
2015,04,04,17,34,10.70
2015,04,04,17,35,10.70
2015,04,04,17,36,10.70
2015,04,04,17,37,10.70
2015,04,04,17,38,10.70
2015,04,04,17,39,10.80
2015,04,04,17,40,10.80
2015,04,04,17,41,10.80
2015,04,04,17,42,10.80
2015,04,04,17,43,10.80
2015,04,04,17,44,10.80
2015,04,04,17,45,10.80
2015,04,04,17,46,10.90
2015,04,04,17,47,10.90
2015,04,04,17,48,10.90
2015,04,04,17,49,10.80
2015,04,04,17,50,10.80
2015,04,04,17,51,10.80
2015,04,04,17,52,10.90
2015,04,04,17,53,10.90
2015,04,04,17,54,10.90
2015,04,04,17,55,10.90
2015,04,04,17,56,10.90
2015,04,04,17,57,10.90
2015,04,04,17,58,10.80